Location: Leipzig
(51.3397°N, 12.3731°E)
Time: 15:23:57
(UTC+02:00)

ISS - Visible Passes

Search period start: 26 September 2023 00:00
Search period end: 06 October 2023 00:00
Orbit: 413 x 421 km, 51.6° (Epoch: 26 September)

Date Brightness Start Highest point End Pass type
(mag) Time Alt. Az. Time Alt. Az. Time Alt. Az.
26 Sep -3.8 20:04:13 10° W 20:07:33 84° SSW 20:09:48 19° ESE visible
26 Sep -1.5 21:41:07 10° W 21:42:43 22° WSW 21:42:43 22° WSW visible
27 Sep -3.0 20:52:52 10° W 20:56:03 41° SSW 20:56:25 39° S visible
28 Sep -3.3 20:04:39 10° W 20:07:56 55° SSW 20:10:07 19° SE visible
28 Sep -0.9 21:42:08 10° WSW 21:43:02 13° WSW 21:43:02 13° WSW visible
29 Sep -1.9 20:53:30 10° W 20:56:08 22° SW 20:56:44 21° SSW visible
30 Sep -2.3 20:05:01 10° W 20:08:01 31° SSW 20:10:29 13° SSE visible
01 Oct -2.7 19:16:37 10° W 19:19:49 42° SSW 19:23:00 10° SE visible
01 Oct -0.9 20:55:05 10° WSW 20:55:54 11° SW 20:56:43 10° SSW visible
02 Oct -1.1 20:05:38 10° W 20:07:47 16° SW 20:09:54 10° S visible
03 Oct -1.6 19:16:51 10° W 19:19:34 23° SW 19:22:16 10° SSE visible
05 Oct -0.7 19:17:51 10° WSW 19:18:58 11° SW 19:20:05 10° SSW visible
